Tracking 19286 objects as of 19-Nov-2018
HD Live streaming from Space Station
objects crossing your sky now

GORIZONT 30

Track GORIZONT 30 now!
GORIZONT 30 is classified as:


NORAD ID: 23108
Int'l Code: 1994-030A
Perigee: 35,738.2 km
Apogee: 35,786.3 km
Inclination: 14.8 °
Period: 1,434.5 minutes
Semi major axis: 42133 km
RCS: 12.5892 m2 (large)
Launch date: May 20, 1994
Source: Commonwealth of Independent States (former USSR) (CIS)
Launch site: TYURATAM MISSILE AND SPACE COMPLEX (TTMTR)
aabbcc
Your satellite tracking list
Your tracking list is empty




NASA's NSSDC Master Catalog

Two Line Element Set (TLE):
1 23108U 94030A   18322.55718834 -.00000200  00000-0  00000+0 0  9999
2 23108  14.8265  11.1777 0005711 262.2499 253.2023  1.00384211 89738
Source of the keplerian elements: AFSPC